Niagara Falls, NY

9:58 AM EST on November 21, 2019 (GMT -0500)
Niagara Falls International

Weather History for KIAG - September, 2019

Change the Weather History Date:

Monday, September 16, 2019

  Actual Average Record
Temperature  
Mean Temperature 65 °F -  
Max Temperature 72 °F 71 °F 89 °F (1991)
Min Temperature 57 °F 51 °F 39 °F (2007)
Growing Degree Days 15 (Base 50)    
Moisture  
Dew Point 58 °F    
Average Humidity 86    
Maximum Humidity 96    
Minimum Humidity 70    
Precipitation  
Precipitation 0.06 in - - ()
Sea Level Pressure  
Sea Level Pressure 30.09 in    
Wind  
Wind Speed 6 mph (ENE)    
Max Wind Speed 10 mph    
Max Gust Speed -    
Visibility 10 miles    
Events Rain    
Averages and records for this station are not official NWS values.
T = Trace of Precipitation, MM = Missing Value Source: NWS Daily Summary

Daily Weather History Graph

Daily Weather History Graph

Search for Another Location

Airport or City:

Astronomy

Sep. 16, 2019 Rise Set
Actual Time 6:56 AM EDT 7:24 PM EDT
Civil Twilight 6:27 AM EDT 7:52 PM EDT
Nautical Twilight 5:54 AM EDT 8:26 PM EDT
Astronomical Twilight 5:19 AM EDT 9:01 PM EDT
Moon 8:55 PM EDT (9/16) 9:03 AM EDT (9/16)
Length of Visible Light 13h 25m
Length of Day
12h 28m
Waning Gibbous, 94% of the Moon is Illuminated
Sep 16
Waning Gibbous
Sep 21
Last Quarter
Sep 28
New
Oct 5
First Quarter
Oct 13
Full

Hourly Weather History & Observations

Time (EDT) Temp. Dew Point Humidity Pressure Visibility Wind Dir Wind Speed Gust Speed Precip Events Conditions
12:15 AM 59.0 °F 57.9 °F 96% 30.10 in 10.0 mi East 3.5 mph - N/A   Overcast
12:53 AM 59.0 °F 57.9 °F 96% 30.10 in 10.0 mi ENE 4.6 mph - N/A   Overcast
1:38 AM 59.0 °F 57.9 °F 96% 30.08 in 10.0 mi East 3.5 mph - N/A   Overcast
1:53 AM 59.0 °F 57.9 °F 96% 30.09 in 10.0 mi East 3.5 mph - N/A   Overcast
2:03 AM 59.0 °F 57.9 °F 96% 30.09 in 10.0 mi East 3.5 mph - N/A   Overcast
2:30 AM 59.0 °F 57.9 °F 96% 30.08 in 10.0 mi East 5.8 mph - N/A   Overcast
2:53 AM 59.0 °F 57.9 °F 96% 30.08 in 10.0 mi East 4.6 mph - N/A   Overcast
3:00 AM 59.0 °F 57.9 °F 96% 30.07 in 10.0 mi East 4.6 mph - N/A   Overcast
3:13 AM 60.1 °F 57.9 °F 93% 30.07 in 10.0 mi East 4.6 mph - N/A   Overcast
3:53 AM 60.1 °F 59.0 °F 96% 30.07 in 8.0 mi East 4.6 mph - N/A   Overcast
4:00 AM 60.1 °F 59.0 °F 96% 30.07 in 8.0 mi ENE 5.8 mph - N/A   Overcast
4:53 AM 61.0 °F 59.0 °F 93% 30.07 in 9.0 mi ENE 8.1 mph - N/A   Overcast
5:01 AM 61.0 °F 59.0 °F 93% 30.07 in 10.0 mi NE 8.1 mph - N/A   Overcast
5:18 AM 60.1 °F 57.9 °F 93% 30.07 in 10.0 mi ENE 8.1 mph - N/A   Overcast
5:53 AM 60.1 °F 57.9 °F 93% 30.09 in 9.0 mi ENE 6.9 mph - N/A   Overcast
6:53 AM 60.1 °F 57.9 °F 93% 30.09 in 8.0 mi East 5.8 mph - N/A   Overcast
7:53 AM 60.1 °F 57.9 °F 93% 30.10 in 10.0 mi East 8.1 mph - N/A   Overcast
8:53 AM 62.1 °F 59.0 °F 90% 30.10 in 10.0 mi East 8.1 mph - N/A   Overcast
9:53 AM 64.0 °F 59.0 °F 84% 30.11 in 10.0 mi East 10.4 mph - N/A   Overcast
10:53 AM 66.0 °F 60.1 °F 81% 30.10 in 10.0 mi East 5.8 mph - N/A   Overcast
11:53 AM 68.0 °F 61.0 °F 78% 30.09 in 10.0 mi East 6.9 mph - N/A   Overcast
12:53 PM 69.1 °F 61.0 °F 75% 30.09 in 10.0 mi NE 6.9 mph - N/A   Overcast
1:12 PM 69.1 °F 60.1 °F 73% 30.08 in 10.0 mi ENE 8.1 mph - N/A   Overcast
1:53 PM 69.1 °F 61.0 °F 75% 30.09 in 10.0 mi NE 6.9 mph - N/A   Overcast
2:17 PM 71.1 °F 62.1 °F 73% 30.08 in 10.0 mi ENE 6.9 mph - N/A   Overcast
2:53 PM 71.1 °F 61.0 °F 70% 30.08 in 10.0 mi NE 8.1 mph - N/A   Overcast
3:53 PM 70.0 °F 60.1 °F 71% 30.07 in 10.0 mi NNE 10.4 mph - N/A   Overcast
4:53 PM 68.0 °F 59.0 °F 73% 30.08 in 10.0 mi NNE 9.2 mph - N/A   Overcast
6:53 PM 63.0 °F 55.9 °F 78% 30.10 in 10.0 mi NE 8.1 mph - N/A   Overcast
7:53 PM 61.0 °F 55.9 °F 83% 30.11 in 10.0 mi NE 6.9 mph - 0.01 in Rain Light Rain
8:53 PM 60.1 °F 55.9 °F 86% 30.12 in 9.0 mi NNE 5.8 mph - 0.04 in Rain Light Rain
9:53 PM 60.1 °F 55.0 °F 83% 30.12 in 10.0 mi East 5.8 mph - 0.01 in   Overcast
10:53 PM 60.1 °F 53.1 °F 78% 30.13 in 10.0 mi East 4.6 mph - N/A   Overcast
11:53 PM 57.9 °F 50.0 °F 75% 30.13 in 10.0 mi Calm Calm - N/A   Mostly Cloudy